Terminal Aerodrome Forecast
Issued by NWS

Home | Current Version | Previous Version | Text Only | Print | Product List | Glossary On
Versions: 1 2 3 4 5 6 7 8 9 10 11 12 13 14 15 16 17 18 19 20 21 22 23 24 25 26 27 28 29 30 31 32
107
FTUS43 KGRR 291834 AAA
TAFMKG
TAF AMD
KMKG 291834Z 2919/3018 11007G18KT P6SM FEW160 OVC240
     FM300000 08008KT P6SM OVC050
     FM300600 09011KT 3SM -RASN BR OVC050
     FM301000 10014KT 4SM -RA OVC035
     FM301300 09014G20KT 2SM -RA OVC015
     FM301500 09016G26KT 1 1/2SM RA BR OVC008=

USA.gov is the U.S. government's official web portal to all federal, state and local government web resources and services.